Weather History for San Angelo, TX

Change the Weather History Date:

Friday, May 31, 2013

  Actual Average Record
Temperature  
Mean Temperature 87 °F 78 °F  
Max Temperature 98 °F 90 °F 104 °F (1927)
Min Temperature 75 °F 66 °F 51 °F (1909)
Degree Days  
Heating Degree Days 0 0  
Month to date heating degree days 32 8  
Since 1 July heating degree days 1919 2316  
Cooling Degree Days 22 13  
Month to date cooling degree days 347 304  
Year to date cooling degree days 596 460  
Growing Degree Days 36 (Base 50)    
Moisture  
Dew Point 69 °F    
Average Humidity 60    
Maximum Humidity 82    
Minimum Humidity 38    
Precipitation  
Precipitation 0.00 in 0.11 in 3.06 in (1937)
Month to date precipitation 3.57 2.82  
Year to date precipitation 6.38 8.02  
Sea Level Pressure  
Sea Level Pressure 29.71 in    
Wind  
Wind Speed 16 mph (South)    
Max Wind Speed 24 mph    
Max Gust Speed 33 mph    
Visibility 10 miles    
Events      
T = Trace of Precipitation, MM = Missing Value Source: NWS Daily Summary

Daily Weather History Graph

Daily Weather History Graph

Search for Another Location

Airport:

Trip Planner

Search our weather history database for the weather conditions in past years. The results will help you decide how hot, cold, wet, or windy it might be!

Date:

Astronomy

May. 31, 2013 Rise Set
Actual Time 6:38 AM CDT 8:41 PM CDT
Civil Twilight 6:10 AM CDT 9:08 PM CDT
Nautical Twilight 5:37 AM CDT 9:42 PM CDT
Astronomical Twilight 5:01 AM CDT 10:18 PM CDT
Moon 1:34 AM CDT (5/31) 1:35 PM CDT (5/31)
Length of Visible Light 14h 57m
Length of Day
14h 02m
Waning Gibbous, 51% of the Moon is Illuminated
May 31
Waning Gibbous
May 31
Last Quarter
Jun 8
New
Jun 16
First Quarter
Jun 23
Full

Hourly Weather History & Observations

Time (CDT) Temp. Heat Index Dew Point Humidity Pressure Visibility Wind Dir Wind Speed Gust Speed Precip Events Conditions
12:51 AM 79.0 °F - 68.0 °F 69% 29.73 in 10.0 mi South 13.8 mph 23.0 mph N/A   Clear
1:51 AM 78.1 °F - 68.0 °F 71% 29.73 in 10.0 mi South 11.5 mph - N/A   Clear
2:51 AM 77.0 °F - 68.0 °F 74% 29.71 in 10.0 mi South 9.2 mph - N/A   Clear
3:51 AM 75.9 °F - 68.0 °F 76% 29.70 in 10.0 mi SSW 16.1 mph - N/A   Clear
4:51 AM 75.0 °F - 70.0 °F 84% 29.70 in 10.0 mi South 16.1 mph 25.3 mph N/A   Clear
5:51 AM 75.0 °F - 70.0 °F 84% 29.72 in 10.0 mi South 16.1 mph 20.7 mph N/A   Clear
6:51 AM 75.9 °F - 70.0 °F 82% 29.73 in 10.0 mi South 19.6 mph 29.9 mph N/A   Partly Cloudy
7:51 AM 77.0 °F - 70.0 °F 79% 29.75 in 10.0 mi South 19.6 mph 27.6 mph N/A   Partly Cloudy
8:37 AM 78.8 °F - 71.6 °F 78% 29.84 in 10.0 mi South 18.4 mph 24.2 mph N/A   Mostly Cloudy
8:51 AM 79.0 °F - 70.0 °F 74% 29.76 in 10.0 mi South 21.9 mph 31.1 mph N/A   Mostly Cloudy
9:22 AM 80.6 °F 84.6 °F 71.6 °F 74% 29.85 in 10.0 mi South 21.9 mph 32.2 mph N/A   Scattered Clouds
9:51 AM 82.0 °F 85.9 °F 70.0 °F 67% 29.77 in 10.0 mi South 19.6 mph 31.1 mph N/A   Scattered Clouds
10:51 AM 84.9 °F 89.4 °F 70.0 °F 61% 29.77 in 10.0 mi SSW 19.6 mph 28.8 mph N/A   Partly Cloudy
11:51 AM 87.1 °F 92.0 °F 70.0 °F 57% 29.78 in 10.0 mi South 17.3 mph 26.5 mph N/A   Partly Cloudy
12:51 PM 89.1 °F 94.1 °F 70.0 °F 53% 29.76 in 10.0 mi SSW 18.4 mph 25.3 mph N/A   Clear
1:51 PM 91.9 °F 97.4 °F 70.0 °F 48% 29.73 in 10.0 mi South 19.6 mph 26.5 mph N/A   Clear
2:51 PM 93.9 °F 99.1 °F 69.1 °F 44% 29.70 in 10.0 mi SSW 15.0 mph 25.3 mph N/A   Clear
3:51 PM 96.1 °F 101.0 °F 68.0 °F 40% 29.68 in 10.0 mi South 15.0 mph 23.0 mph N/A   Clear
4:51 PM 97.0 °F 100.4 °F 66.0 °F 36% 29.65 in 10.0 mi South 15.0 mph 24.2 mph N/A   Clear
5:51 PM 97.0 °F 100.4 °F 66.0 °F 36% 29.64 in 10.0 mi SSW 16.1 mph 21.9 mph N/A   Clear
6:51 PM 95.0 °F 97.9 °F 66.0 °F 38% 29.63 in 10.0 mi South 13.8 mph - N/A   Clear
7:51 PM 93.0 °F 95.9 °F 66.0 °F 41% 29.62 in 10.0 mi South 13.8 mph 25.3 mph N/A   Clear
8:51 PM 90.0 °F 93.6 °F 68.0 °F 48% 29.63 in 10.0 mi South 12.7 mph 25.3 mph N/A   Clear
9:51 PM 89.1 °F 93.7 °F 69.1 °F 52% 29.64 in 10.0 mi South 13.8 mph - N/A   Clear
10:51 PM 87.1 °F 91.3 °F 69.1 °F 55% 29.65 in 10.0 mi South 15.0 mph - N/A   Clear
11:51 PM 86.0 °F 89.4 °F 68.0 °F 55% 29.65 in 10.0 mi South 17.3 mph 21.9 mph N/A   Clear